Location: Lombard
(41.8800°N, 88.0080°W)
Time: 02:57:05
(UTC-05:00)

BEESAT - Pass Details

Date: 24 May 2022
Orbit: 698 x 708 km, 98.6° (Epoch: 26 June)

Event Time Altitude Azimuth Distance (km) Brightness Sun altitude
Rises 20:41:12 0° 20° (NNE) 3,092 ? -5.1°
Reaches altitude 10° 20:43:34 10° 28° (NNE) 2,169 ? -5.5°
Maximum altitude 20:48:04 42° 99° (E) 992 ? -6.1°
Drops below altitude 10° 20:52:32 10° 170° (S) 2,153 ? -6.8°
Sets 20:54:53 0° 177° (S) 3,066 ? -7.2°
